Buffalo, SD

7:59 PM MST on January 21, 2018 (GMT -0700)
Buffalo

Weather History for K2WX - November, 2012

Change the Weather History Date:

Thursday, November 1, 2012

  Actual Average Record
Temperature  
Mean Temperature 37 °F 39 °F  
Max Temperature 39 °F 50 °F 71 °F (2008)
Min Temperature 34 °F 28 °F 7 °F (2002)
Degree Days  
Heating Degree Days 28 26  
Month to date heating degree days 28 26  
Since 1 July heating degree days 840 927  
Cooling Degree Days 0 0  
Month to date cooling degree days 0 0  
Year to date cooling degree days 853 513  
Moisture  
Dew Point 36 °F    
Average Humidity 96    
Maximum Humidity 100    
Minimum Humidity 92    
Precipitation  
Precipitation 0.01 in 0.02 in 1.16 in (2000)
Month to date precipitation 0.01 0.02  
Year to date precipitation 8.18 13.94  
Sea Level Pressure  
Sea Level Pressure 29.92 in    
Wind  
Wind Speed 14 mph (SE)    
Max Wind Speed 24 mph    
Max Gust Speed 28 mph    
T = Trace of Precipitation, MM = Missing Value Source: NWS Daily Summary

Daily Weather History Graph

Daily Weather History Graph

Search for Another Location

Airport or City:

Trip Planner

Search our weather history database for the weather conditions in past years. The results will help you decide how hot, cold, wet, or windy it might be!

Date:

Astronomy

Nov. 01, 2012 Rise Set
Actual Time 7:34 AM MDT 5:40 PM MDT
Civil Twilight 7:03 AM MDT 6:11 PM MDT
Nautical Twilight 6:28 AM MDT 6:46 PM MDT
Astronomical Twilight 5:53 AM MDT 7:20 PM MDT
Moon 7:32 PM MDT (11/1) 10:15 AM MDT (11/1)
Length of Visible Light 11h 07m
Length of Day
10h 05m
Waning Gibbous, 92% of the Moon is Illuminated
Nov 1
Waning Gibbous
Nov 6
Last Quarter
Nov 13
New
Nov 20
First Quarter
Nov 28
Full

Hourly Weather History & Observations

Time (MDT) Temp. Windchill Dew Point Humidity Pressure Visibility Wind Dir Wind Speed Gust Speed Precip Events Conditions
12:56 AM 37.0 °F 30.4 °F 37.0 °F 100% 30.01 in - East 9.2 mph - N/A   Unknown
1:56 AM 36.0 °F 29.0 °F 36.0 °F 100% 30.01 in - SSE 9.2 mph - N/A   Unknown
2:56 AM 36.0 °F 29.6 °F 36.0 °F 100% 29.99 in - SSE 8.1 mph - N/A   Unknown
3:56 AM 36.0 °F 28.0 °F 36.0 °F 100% 29.97 in - ESE 11.5 mph - N/A   Unknown
4:56 AM 36.0 °F 28.0 °F 36.0 °F 100% 29.96 in - SE 11.5 mph - N/A   Unknown
5:56 AM 36.0 °F 26.7 °F 36.0 °F 100% 29.97 in - SE 15.0 mph - N/A   Unknown
6:56 AM 35.1 °F 26.9 °F 35.1 °F 100% 29.97 in - ESE 11.5 mph - N/A   Unknown
7:56 AM 34.0 °F 23.4 °F 34.0 °F 100% 29.97 in - SE 17.3 mph 24.2 mph N/A   Unknown
8:56 AM 34.0 °F 24.2 °F 34.0 °F 100% 29.98 in - ESE 15.0 mph - N/A   Unknown
9:56 AM 34.0 °F 24.2 °F 34.0 °F 100% 29.96 in - SE 15.0 mph - N/A   Unknown
10:56 AM 36.0 °F 25.6 °F 35.1 °F 97% 29.94 in - SSE 18.4 mph - N/A   Unknown
11:56 AM 36.0 °F 25.3 °F 35.1 °F 97% 29.92 in - SSE 19.6 mph - N/A   Unknown
12:56 PM 37.0 °F 28.1 °F 36.0 °F 96% 29.89 in - SE 15.0 mph - N/A   Unknown
1:56 PM 37.9 °F 28.2 °F 37.9 °F 100% 29.88 in - SE 18.4 mph - N/A   Unknown
2:56 PM 37.9 °F 26.8 °F 37.9 °F 100% 29.85 in - SE 24.2 mph - N/A   Unknown
3:56 PM 39.0 °F 29.9 °F 37.9 °F 96% 29.84 in - SE 17.3 mph 24.2 mph N/A   Unknown
4:56 PM 37.9 °F 28.9 °F 37.9 °F 100% 29.85 in - SE 16.1 mph - N/A   Unknown
5:56 PM 37.0 °F 28.9 °F 37.0 °F 100% 29.87 in - SE 12.7 mph - 0.01 in   Unknown
6:56 PM 37.0 °F 29.8 °F 37.0 °F 100% 29.88 in - ESE 10.4 mph - N/A   Unknown
7:56 PM 36.0 °F 27.1 °F 36.0 °F 100% 29.88 in - ESE 13.8 mph - N/A   Unknown
8:56 PM 36.0 °F 27.5 °F 36.0 °F 100% 29.87 in - ESE 12.7 mph - N/A   Unknown
9:56 PM 36.0 °F 29.0 °F 35.1 °F 97% 29.88 in - ESE 9.2 mph - N/A   Unknown
10:56 PM 36.0 °F 27.5 °F 36.0 °F 100% 29.88 in - SSE 12.7 mph - N/A   Unknown
11:56 PM 36.0 °F 28.0 °F 36.0 °F 100% 29.88 in - SE 11.5 mph - N/A   Unknown